TimeEDT,TemperatureF,Dew PointF,Humidity,Sea Level PressureIn,VisibilityMPH,Wind Direction,Wind SpeedMPH,Gust SpeedMPH,PrecipitationIn,Events,Conditions,WindDirDegrees,DateUTC
12:54 AM,35.1,23.0,61,29.93,-9999.0,North,-9999.0,-,N/A,,Unknown,0,2011-10-28 04:54:00
1:54 AM,35.1,23.0,61,29.94,-9999.0,North,-9999.0,-,N/A,,Unknown,0,2011-10-28 05:54:00
2:54 AM,35.1,21.9,59,29.96,-9999.0,North,-9999.0,-,N/A,,Unknown,0,2011-10-28 06:54:00
3:54 AM,34.0,19.9,56,29.99,-9999.0,North,-9999.0,-,N/A,,Unknown,0,2011-10-28 07:54:00
4:54 AM,34.0,19.9,56,30.01,-9999.0,North,-9999.0,-,N/A,,Unknown,0,2011-10-28 08:54:00
5:54 AM,30.0,21.9,72,30.03,-9999.0,North,-9999.0,-,N/A,,Unknown,0,2011-10-28 09:54:00
6:54 AM,30.0,21.9,72,30.05,-9999.0,North,-9999.0,-,N/A,,Unknown,0,2011-10-28 10:54:00
7:54 AM,28.9,23.0,78,30.09,-9999.0,North,-9999.0,-,N/A,,Unknown,0,2011-10-28 11:54:00
8:54 AM,33.1,21.9,64,30.10,-9999.0,North,-9999.0,-,N/A,,Unknown,0,2011-10-28 12:54:00
9:54 AM,36.0,21.9,57,30.11,-9999.0,North,-9999.0,-,N/A,,Unknown,0,2011-10-28 13:54:00
10:54 AM,37.9,21.0,51,30.13,-9999.0,North,-9999.0,-,N/A,,Unknown,0,2011-10-28 14:54:00
11:54 AM,39.9,21.0,47,30.13,-9999.0,North,-9999.0,-,N/A,,Unknown,0,2011-10-28 15:54:00
12:54 PM,41.0,19.9,43,30.11,-9999.0,North,-9999.0,-,N/A,,Unknown,0,2011-10-28 16:54:00
1:54 PM,41.0,19.9,43,30.12,-9999.0,North,-9999.0,-,N/A,,Unknown,0,2011-10-28 17:54:00
2:54 PM,42.1,19.9,41,30.12,-9999.0,North,-9999.0,-,N/A,,Unknown,0,2011-10-28 18:54:00
3:54 PM,42.1,17.1,37,30.14,-9999.0,North,-9999.0,-,N/A,,Unknown,0,2011-10-28 19:54:00
4:54 PM,41.0,19.0,41,30.15,-9999.0,North,-9999.0,-,N/A,,Unknown,0,2011-10-28 20:54:00
5:54 PM,39.0,18.0,43,30.17,-9999.0,North,-9999.0,-,N/A,,Unknown,0,2011-10-28 21:54:00
6:54 PM,35.1,21.0,57,30.18,-9999.0,North,-9999.0,-,N/A,,Unknown,0,2011-10-28 22:54:00
7:54 PM,32.0,21.9,66,30.21,-9999.0,North,-9999.0,-,N/A,,Unknown,0,2011-10-28 23:54:00
8:54 PM,30.0,21.9,72,30.23,-9999.0,North,-9999.0,-,N/A,,Unknown,0,2011-10-29 00:54:00
9:54 PM,28.9,23.0,78,30.25,-9999.0,North,-9999.0,-,N/A,,Unknown,0,2011-10-29 01:54:00
10:54 PM,28.0,23.0,81,30.25,-9999.0,North,-9999.0,-,N/A,,Unknown,0,2011-10-29 02:54:00
11:54 PM,27.0,23.0,85,30.26,-9999.0,North,-9999.0,-,N/A,,Unknown,0,2011-10-29 03:54:00